Location: Austin
(30.3000°N, 97.7500°W)
Time: 10:55:05
(UTC-05:00)

SPOT 1/Viking Rocket - Pass Details

Date: 05 September 2024
Orbit: 774 x 792 km, 98.3° (Epoch: 10 September)

Event Time Altitude Azimuth Distance (km) Brightness Sun altitude
Rises 20:14:46 0° 145° (SE) 3,272 6.3 -6.5°
Reaches altitude 10° 20:17:15 10° 136° (SE) 2,344 5.5 -7.0°
Maximum altitude 20:21:54 34° 72° (ENE) 1,266 4.2 -8.0°
Drops below altitude 10° 20:26:32 10° 8° (N) 2,346 6.1 -9.0°
Sets 20:29:01 0° 360° (N) 3,274 6.9 -9.5°
